Theta_e
296 296 296 296 296 295 295 295 294 294 294 294 294 294 293 293 295 296 296 294 294 294 294 293 294 294 294 294 294 294 294 294 294 294 294 295 295 295 296 296 297 297 297 297 297 297 297 298 298 298 298 298 298 298 298 298 297 297 297 297 297 297 298 297 296 299 307 314 318 322 324 325 324 322
296 295 295 295 295 295 294 294 294 294 294 294 293 293 293 293 293 294 295 295 293 293 293 293 293 293 293 294 294 294 294 294 294 294 294 295 295 296 296 296 297 297 298 298 298 298 298 298 298 299 299 299 298 298 298 298 297 297 297 297 297 297 298 298 297 297 301 310 317 321 323 324 324 323
295 295 295 295 294 294 294 294 293 293 294 293 293 293 293 292 292 292 293 295 294 292 293 293 293 293 293 293 293 293 293 294 294 294 294 294 295 295 295 296 296 297 298 298 298 298 298 299 299 298 298 298 298 298 298 298 297 297 297 296 297 297 298 298 298 297 298 306 315 320 322 323 324 324
295 295 294 294 294 293 293 293 293 293 293 293 293 293 292 292 292 292 292 294 294 292 293 293 292 292 293 293 293 293 293 293 294 294 294 294 294 295 295 295 296 297 298 298 298 298 298 298 297 297 297 297 298 297 297 297 297 297 296 296 296 297 298 298 298 297 297 302 312 318 321 322 324 324
295 294 294 294 293 293 293 293 293 293 293 293 292 292 292 292 292 291 291 292 292 292 293 292 292 292 292 293 293 293 293 293 293 293 294 294 294 295 295 296 297 298 298 298 298 297 297 297 296 296 296 296 296 296 297 296 296 296 296 296 296 297 297 298 298 298 297 299 307 316 319 321 322 324
295 294 294 294 293 293 293 293 293 293 293 293 292 292 292 292 292 291 291 291 291 292 292 292 292 292 292 292 292 293 293 293 293 293 294 294 294 294 295 296 297 298 298 297 297 296 296 296 296 295 295 295 295 295 296 296 296 295 296 295 295 296 297 298 298 298 297 297 302 311 318 319 321 324
295 294 294 294 293 293 293 293 293 292 292 292 292 292 292 292 292 292 291 291 291 291 291 291 291 291 292 292 292 292 293 293 293 293 293 294 294 295 295 296 297 296 296 296 296 295 295 295 295 295 294 295 295 295 295 295 295 295 295 295 295 295 296 297 298 299 298 297 298 305 314 318 319 321
295 294 294 294 293 293 293 293 292 292 292 292 292 292 292 292 292 292 292 291 291 291 291 291 291 291 292 292 292 292 293 293 293 293 294 294 294 295 296 296 296 296 295 295 295 295 295 295 294 294 294 294 294 294 295 295 295 295 295 295 295 295 295 297 298 298 299 298 297 300 308 315 317 319
294 294 294 293 293 293 293 293 293 292 292 292 292 292 292 292 292 292 292 291 291 291 291 291 291 291 291 291 292 292 293 293 293 294 294 294 294 295 296 296 296 296 295 295 295 295 295 295 294 294 294 294 294 294 294 294 294 295 295 295 295 295 295 296 297 298 299 298 297 297 302 310 316 317
294 293 293 293 293 293 293 293 293 292 292 292 291 291 291 292 292 292 292 291 291 291 291 291 291 291 291 292 292 292 293 293 294 294 295 295 295 295 296 296 296 295 295 295 295 295 294 294 294 294 294 294 294 294 294 294 294 294 294 295 295 295 295 295 296 298 299 299 298 297 298 304 312 316
293 293 293 293 293 293 292 293 293 292 292 291 291 291 291 291 291 291 291 291 291 291 291 291 291 291 291 292 293 293 293 294 294 295 295 295 295 296 296 296 295 295 295 295 295 294 294 294 294 294 294 294 294 294 294 294 294 294 294 295 295 295 295 295 296 297 298 299 298 298 297 300 307 314
293 293 293 293 293 293 292 292 292 292 291 291 291 291 291 291 291 291 291 291 291 291 291 291 290 291 291 292 293 294 294 294 294 294 294 295 295 296 295 295 295 295 295 295 295 294 294 295 295 295 295 295 295 294 294 294 294 295 295 294 295 295 295 295 295 297 298 299 298 298 298 297 302 310
293 293 293 293 293 293 292 292 292 292 291 291 291 291 291 291 291 291 291 291 291 291 291 290 290 291 292 293 293 294 294 294 294 294 294 295 295 295 295 295 295 295 295 295 295 294 295 295 295 294 295 295 295 295 295 295 295 295 295 295 294 294 294 294 295 296 297 298 298 298 298 297 299 305
293 293 293 293 293 293 292 292 292 291 291 291 291 290 290 290 291 291 291 291 291 291 291 290 290 291 293 293 293 294 294 294 294 293 294 294 295 295 295 295 295 295 295 295 295 295 294 294 294 294 295 295 295 295 295 295 295 295 295 294 294 294 294 294 294 295 297 298 298 298 298 298 297 302
293 293 293 293 293 293 292 292 292 291 291 291 291 291 291 290 290 290 290 291 291 291 291 290 290 291 292 293 293 293 293 293 293 293 293 294 294 295 295 295 295 295 294 294 294 294 294 294 294 294 294 295 295 295 295 295 294 294 294 295 295 294 294 294 294 295 296 297 298 298 298 298 297 299
293 293 293 293 293 293 293 292 292 292 292 292 291 291 291 290 290 290 290 290 291 291 291 290 290 291 292 292 292 293 293 293 293 293 293 294 294 295 295 295 295 295 294 294 294 294 294 294 294 294 294 294 295 295 295 294 294 294 295 295 295 294 294 294 294 294 296 297 298 298 298 298 298 297
293 293 293 293 293 292 292 292 292 292 292 292 292 292 291 291 290 290 290 290 290 291 291 291 290 290 291 292 292 293 293 293 293 293 293 294 294 295 295 295 294 294 294 294 293 293 293 293 294 294 294 294 294 294 294 294 294 295 295 295 295 295 295 294 294 294 295 297 298 298 298 298 298 298
293 293 293 293 292 292 292 292 292 292 292 293 293 292 292 291 291 291 291 290 290 290 291 291 290 290 291 291 292 293 293 293 293 293 293 294 294 295 295 294 294 294 294 293 293 293 293 293 293 293 293 293 294 294 294 294 295 295 295 295 295 295 295 295 294 294 295 296 298 298 298 298 298 298
293 293 293 293 292 292 292 292 292 292 293 293 293 293 292 292 291 291 291 290 290 290 290 291 290 290 290 291 292 292 293 293 293 292 293 294 294 294 294 294 294 294 294 293 293 293 293 293 292 292 293 293 293 293 294 294 295 295 295 295 295 295 295 295 295 295 295 296 297 298 298 298 298 298
293 293 293 292 292 292 292 292 292 292 293 293 293 293 292 292 292 292 292 291 291 290 290 291 291 290 290 291 291 292 292 292 292 292 293 293 294 294 294 294 294 294 294 293 293 292 292 292 292 292 293 293 292 293 293 294 294 295 295 296 296 296 296 296 295 295 295 296 297 298 298 298 298 298
293 293 292 292 292 292 292 292 292 292 293 293 293 293 293 293 293 293 293 292 292 291 291 291 291 291 290 291 291 292 292 292 292 292 292 293 294 294 294 293 294 294 293 293 292 292 292 292 292 293 293 292 292 292 293 294 294 295 296 296 296 296 296 296 296 296 296 296 297 298 298 298 298 298
293 293 292 292 292 292 292 292 292 292 293 293 293 293 293 293 293 292 292 292 292 292 291 291 291 291 291 291 291 292 292 292 292 292 292 293 294 294 294 293 293 293 293 292 292 291 292 292 292 292 292 291 292 292 293 293 294 295 296 297 297 297 297 296 296 296 296 297 297 298 298 298 298 298
293 292 292 292 292 292 292 292 292 293 293 293 293 293 293 293 292 292 292 292 292 292 292 291 291 291 291 291 291 292 292 292 292 292 292 293 294 293 293 293 293 293 293 292 291 291 291 291 292 292 291 291 292 293 293 293 294 295 296 296 297 298 298 297 297 297 297 297 298 298 298 298 299 299
292 292 292 293 292 293 293 293 293 293 293 293 293 292 292 292 292 292 292 292 292 292 292 291 291 291 291 291 291 292 292 292 292 292 292 293 294 294 294 294 294 293 293 292 291 291 291 291 292 292 291 290 292 294 295 294 294 295 296 297 298 298 299 299 298 298 298 298 298 299 299 299 299 299
293 293 293 293 293 293 293 293 293 293 293 293 292 292 292 292 292 292 292 292 292 292 292 292 291 290 290 290 291 291 292 292 292 292 291 292 294 295 294 294 294 294 293 292 291 290 291 292 293 292 291 290 291 293 295 296 296 296 297 298 299 299 300 300 300 300 299 299 298 299 299 299 299 299
293 293 293 293 293 293 293 293 293 293 293 293 293 292 292 292 292 292 292 292 293 293 292 292 291 290 290 290 290 291 292 292 292 292 291 292 293 295 295 294 294 294 293 292 291 291 291 292 293 292 291 290 290 291 294 296 297 297 298 299 300 300 301 301 301 302 301 301 300 299 299 300 299 299
293 293 293 293 293 293 293 294 294 294 293 293 293 293 292 293 293 293 293 293 293 293 293 292 292 291 290 290 290 291 292 292 292 292 292 291 292 295 296 296 295 295 294 293 292 292 292 292 292 291 290 290 290 291 292 294 297 298 300 301 301 301 301 302 302 302 302 303 303 301 300 300 300 299
293 293 293 293 294 294 294 294 294 294 294 294 294 293 293 293 293 293 293 293 293 293 292 292 292 291 290 290 290 290 291 292 292 292 292 291 292 294 295 296 296 296 295 294 293 293 293 293 291 291 290 290 290 290 291 293 296 298 299 301 302 301 301 303 304 303 302 303 304 303 301 299 300 299
294 294 294 294 294 294 294 294 295 295 295 295 294 293 293 293 293 293 293 293 292 292 292 292 292 291 290 290 290 290 291 292 292 292 292 292 291 292 294 296 297 297 296 295 294 293 293 293 291 291 290 290 290 290 291 293 296 297 297 300 303 303 302 302 304 304 303 303 304 304 301 299 300 298
294 294 294 294 295 295 295 295 295 295 296 295 294 294 293 293 293 293 293 293 292 292 292 292 292 291 291 290 290 290 290 291 292 292 292 292 291 291 293 295 297 298 298 297 296 295 294 293 292 291 291 290 291 291 292 293 296 297 297 299 303 304 304 304 305 305 304 303 304 303 300 299 299 298
294 295 295 295 295 295 296 296 296 296 296 295 294 293 293 294 294 294 294 294 293 293 292 292 292 292 292 291 290 290 290 290 291 292 292 292 292 291 292 293 296 298 298 298 298 297 295 294 292 292 292 291 292 293 294 295 297 298 299 300 302 303 304 306 307 306 305 304 305 303 301 300 299 300
295 295 295 295 295 296 296 296 296 297 296 295 294 294 295 295 296 296 296 296 295 294 293 292 292 292 292 291 290 290 290 290 291 292 292 292 292 292 291 292 294 296 297 297 298 298 297 295 293 292 292 292 291 293 296 297 298 299 300 301 301 302 304 307 308 307 306 307 306 305 302 300 300 304
294 295 295 295 296 296 296 296 296 297 296 295 294 295 296 296 296 296 296 296 296 295 294 293 292 292 293 292 291 290 290 289 290 291 292 292 292 292 292 291 293 294 295 296 297 298 298 297 295 293 293 293 291 292 294 297 298 298 299 300 301 303 304 305 307 307 308 309 308 306 304 303 304 307
294 295 295 295 296 296 296 297 297 297 296 295 295 295 296 296 296 296 296 296 296 296 295 295 294 293 292 292 291 290 290 289 289 290 292 292 292 292 292 291 292 293 294 295 296 297 298 298 297 295 293 293 292 292 292 294 297 298 299 300 301 302 302 304 306 308 309 310 309 309 308 308 308 310
294 295 295 296 296 296 297 297 297 297 297 296 295 295 296 296 296 296 296 296 296 296 296 296 295 294 293 292 292 291 290 290 290 289 291 292 292 292 292 292 291 292 294 294 295 295 296 297 297 295 294 293 293 293 292 293 295 297 299 300 300 301 302 303 304 307 309 311 310 311 312 312 312 312
295 295 296 296 296 296 297 297 297 297 297 296 296 295 295 296 296 296 296 296 296 296 296 296 296 296 295 293 292 292 291 291 290 289 289 291 292 292 292 292 291 291 293 294 294 294 296 296 295 294 293 293 293 293 293 292 292 294 297 299 299 300 301 301 302 304 307 309 310 311 312 313 313 314
296 296 296 296 297 297 297 297 297 297 297 296 296 295 295 296 296 296 296 296 296 296 296 296 296 296 296 295 294 293 292 292 291 290 289 290 291 292 292 292 292 291 292 293 293 294 295 296 295 293 293 293 293 293 293 292 292 292 294 297 298 300 301 301 301 302 304 306 308 309 310 311 313 314
297 297 297 297 297 297 297 297 297 297 297 296 296 295 295 296 296 297 297 297 297 296 296 296 296 296 296 296 295 294 293 292 292 291 290 289 290 291 292 292 292 292 291 291 292 293 294 295 295 294 293 293 293 292 292 293 292 292 293 295 297 299 301 301 301 301 302 304 306 307 308 310 311 312
297 297 297 297 297 297 296 296 296 297 297 297 296 296 296 296 297 297 297 297 297 297 296 296 296 296 296 296 296 295 294 293 292 292 291 290 289 290 292 292 292 292 291 291 291 292 293 294 295 295 294 294 294 293 293 293 293 292 292 294 296 297 299 300 300 301 302 303 304 304 306 307 309 309
298 298 298 297 297 297 297 296 296 297 297 297 296 296 296 297 297 297 297 297 297 297 297 296 296 296 296 296 296 296 295 294 293 292 292 291 290 290 291 292 292 292 292 291 291 291 292 293 294 295 295 295 295 295 295 295 294 294 294 294 295 296 297 298 299 300 301 302 303 304 305 306 307 308
298 298 298 298 298 298 297 297 297 297 297 297 296 296 296 297 297 297 297 297 297 297 297 297 297 297 296 296 296 296 296 295 294 294 293 292 291 290 290 291 292 292 292 292 291 291 291 292 293 294 295 296 296 296 296 295 295 295 295 294 294 295 296 297 298 298 299 301 302 303 304 304 306 307
299 299 299 299 298 298 298 298 297 297 297 297 296 296 297 297 297 297 297 297 298 297 297 297 297 297 297 296 296 296 296 296 296 295 294 294 293 292 291 290 291 292 292 292 292 291 291 291 291 292 293 295 296 296 295 294 294 295 296 295 295 295 295 296 297 297 298 299 300 301 302 303 304 305
299 299 299 299 299 298 298 298 297 297 297 297 297 297 297 297 297 297 298 298 298 298 297 297 297 297 297 297 296 296 296 296 296 296 296 295 294 293 292 291 290 291 292 292 292 292 291 291 291 291 292 293 294 294 294 294 294 295 296 296 296 296 295 296 297 297 297 298 298 298 299 300 301 301
299 299 299 299 299 298 298 298 297 297 297 297 297 297 297 297 297 298 298 298 298 298 298 297 297 297 297 297 297 296 296 296 296 296 296 296 296 295 294 292 291 290 291 291 292 292 292 291 291 291 291 292 293 293 294 294 294 295 295 296 296 295 295 295 296 297 297 297 297 297 298 298 298 298
299 299 299 299 299 298 298 297 297 297 297 297 297 297 297 297 297 298 298 298 298 298 298 297 298 297 297 297 297 297 297 297 296 296 296 296 296 296 295 294 293 292 291 290 291 291 292 292 291 291 291 291 291 292 293 293 293 294 295 296 296 296 295 295 295 295 295 295 295 297 298 298 298 298
Wind_Speed
13 13 14 14 15 16 17 18 19 20 20 21 22 22 23 22 20 19 23 27 28 28 30 32 31 31 30 31 32 31 32 33 34 35 36 38 39 40 39 39 38 37 35 33 32 30 29 29 29 27 27 26 26 25 25 28 30 30 29 31 33 34 34 32 30 30 32 32 31 32 34 38 39 35
13 13 14 14 15 16 17 18 18 19 20 20 21 21 21 22 20 17 18 23 27 30 31 32 32 32 32 32 33 33 34 35 36 37 38 39 40 41 41 41 41 39 38 36 34 34 33 32 31 30 30 28 28 27 26 26 29 30 30 29 31 33 32 32 30 30 33 34 32 33 33 37 41 37
12 13 14 14 15 16 17 17 18 19 19 20 20 20 21 22 22 22 20 20 26 31 32 32 32 32 34 34 36 38 39 39 39 39 40 41 42 44 45 46 45 43 41 40 39 38 38 37 36 35 33 32 30 29 27 26 27 30 31 29 30 31 31 31 30 30 33 35 34 34 33 37 41 41
12 12 13 14 15 16 16 17 17 18 18 19 20 21 22 23 24 26 24 23 28 32 32 33 34 34 36 38 39 41 41 41 42 41 42 44 46 47 49 48 47 46 45 44 43 43 42 41 39 37 35 33 32 31 29 27 26 28 31 30 29 29 30 31 30 30 33 35 36 35 34 36 41 43
11 11 12 13 15 15 16 16 17 18 18 19 21 21 22 24 24 26 27 26 31 33 33 35 36 37 40 40 40 42 43 43 44 44 45 47 49 51 52 51 50 49 47 44 43 43 41 39 36 35 34 32 31 30 29 27 25 26 28 30 29 28 29 30 30 31 33 35 38 38 37 36 39 44
10 11 12 13 14 15 15 16 17 18 19 20 21 22 23 24 24 25 27 28 31 35 36 37 38 40 40 41 42 42 44 46 47 48 49 50 52 53 53 54 54 50 45 43 43 40 37 34 34 33 33 31 30 29 28 26 25 25 26 28 28 27 28 29 30 32 34 35 38 41 40 37 37 43
9 10 12 13 14 15 15 17 18 18 19 20 21 22 23 24 24 24 26 28 31 35 38 39 40 41 41 42 43 43 45 47 49 51 52 53 54 55 56 53 47 42 41 41 41 38 34 34 35 35 34 33 32 30 27 26 24 24 25 27 28 27 27 29 30 32 34 35 37 41 43 39 36 39
9 10 12 13 13 14 15 17 18 19 20 21 22 23 24 24 24 25 25 28 30 35 38 39 40 41 43 43 44 45 47 48 50 52 52 54 54 53 52 45 36 35 38 37 35 34 34 36 36 35 35 35 35 32 29 27 26 25 25 26 28 28 27 29 31 32 35 36 36 40 43 43 38 35
9 10 12 12 13 14 16 17 18 20 20 21 23 23 24 24 25 26 27 29 31 34 38 40 41 42 43 44 44 46 48 51 54 51 48 51 52 46 40 36 34 34 35 32 31 32 33 34 35 34 34 35 35 34 32 30 28 26 25 26 28 29 28 29 32 32 35 37 37 39 42 44 43 37
9 10 11 12 13 14 16 17 19 20 21 22 23 23 23 24 26 27 29 31 33 35 37 40 42 43 44 45 46 46 47 49 52 50 47 48 45 38 34 34 33 33 31 30 30 31 32 33 34 34 34 34 34 33 32 30 28 26 25 25 27 29 28 29 32 33 35 38 37 38 41 44 46 41
9 10 11 12 13 14 15 17 19 20 21 22 22 22 24 25 27 29 30 32 34 36 38 39 41 43 44 44 44 46 47 45 44 46 49 47 41 35 34 34 34 33 31 29 29 31 32 34 34 33 33 34 33 32 30 29 28 25 24 24 25 28 29 29 32 33 35 38 39 38 39 43 46 46
8 9 10 11 12 13 15 16 18 19 21 22 21 22 24 25 27 29 31 33 34 36 38 39 40 42 43 42 42 45 47 47 46 48 49 46 42 39 35 34 34 34 30 28 29 31 31 30 30 30 30 30 30 30 28 27 26 25 23 23 23 25 27 28 31 33 35 38 40 39 39 41 45 48
7 8 9 10 11 12 14 15 16 18 20 21 21 22 23 25 27 29 30 32 34 36 38 39 40 41 41 42 43 45 46 46 48 52 50 44 41 41 39 35 30 29 30 30 31 32 31 30 30 30 30 28 26 26 25 23 22 21 21 22 22 23 25 27 29 32 35 38 41 41 39 40 44 48
6 7 8 9 10 11 13 14 15 17 19 19 20 21 22 24 26 28 29 31 33 35 37 38 39 39 39 41 43 45 46 46 48 52 51 47 45 44 43 38 30 27 31 34 34 33 32 33 31 29 28 27 24 22 21 20 20 21 22 23 24 25 26 27 28 31 34 37 41 42 40 39 42 47
5 7 7 8 9 11 13 14 15 17 18 19 19 19 20 21 23 26 28 30 32 34 35 37 38 37 38 41 43 45 46 47 50 51 49 49 49 45 42 40 37 34 35 36 37 35 33 33 32 29 28 26 23 21 21 22 23 24 25 23 24 27 28 28 28 30 34 37 40 43 41 39 41 45
5 6 6 7 9 11 12 14 15 17 18 18 19 19 19 20 21 23 25 28 30 32 34 36 37 36 37 39 42 44 46 48 51 51 49 48 44 39 37 38 40 41 38 36 38 39 36 32 29 28 28 26 24 23 23 24 25 25 25 23 23 25 28 29 29 30 33 36 39 43 43 40 39 42
4 4 5 6 9 10 12 14 15 17 18 18 19 19 20 21 22 22 23 25 28 30 32 34 35 34 35 38 40 41 44 48 50 51 53 50 40 34 35 38 42 41 37 36 41 42 36 29 27 29 29 27 26 24 23 24 25 25 24 23 22 24 27 30 31 31 33 36 38 41 43 41 39 40
2 3 4 6 8 10 12 14 15 16 17 18 19 20 21 22 23 24 25 26 27 29 30 32 33 33 33 35 37 39 41 45 48 50 53 49 38 33 36 40 41 37 34 36 40 39 35 30 29 31 31 28 27 25 24 25 26 25 24 22 21 23 26 29 31 32 32 35 37 40 43 41 38 39
1 3 4 6 8 10 12 14 15 16 17 18 19 21 22 23 24 25 27 28 28 29 29 30 32 32 32 32 34 37 39 42 45 47 49 46 38 34 37 40 37 32 31 32 34 38 38 33 31 33 34 32 31 29 27 27 25 23 22 21 21 23 25 28 31 32 32 34 37 39 42 41 37 37
1 2 4 6 8 10 12 13 14 16 17 18 20 21 23 24 24 25 27 28 28 28 28 28 29 29 30 30 32 34 37 41 45 46 47 47 40 35 39 43 39 35 32 31 34 39 39 33 30 34 38 37 34 33 29 25 22 20 17 17 18 21 24 27 29 32 32 33 35 38 40 40 37 36
1 2 4 6 8 10 11 13 14 16 17 19 21 22 23 24 25 26 27 28 28 28 27 26 27 27 28 30 31 33 36 41 45 47 50 48 40 37 42 44 42 40 36 34 37 37 36 34 30 32 41 41 33 29 27 23 19 17 15 14 14 17 21 24 27 30 32 32 34 37 39 39 36 34
1 2 4 6 8 9 10 12 14 15 17 19 21 23 24 25 26 27 28 29 30 30 30 28 27 28 29 31 33 35 38 41 45 48 50 47 38 37 43 45 44 43 39 37 38 35 33 35 31 31 42 44 31 23 22 21 17 15 14 14 13 14 17 21 24 26 29 30 32 35 38 37 34 33
1 3 4 6 7 8 9 11 13 15 18 20 21 23 24 25 26 28 29 31 32 32 32 32 31 31 33 34 36 38 40 44 46 47 49 47 40 39 46 49 48 46 44 42 39 35 34 35 33 33 39 42 38 29 23 19 17 14 13 12 12 13 13 17 21 24 25 27 29 33 36 35 33 34
2 3 4 5 6 7 9 11 13 15 18 19 21 23 24 25 26 27 28 30 32 33 34 34 35 35 36 37 39 40 42 45 47 47 48 48 45 44 47 48 46 44 45 44 40 36 35 34 35 36 34 33 37 36 27 18 14 12 11 10 10 10 10 13 16 19 22 23 26 31 33 33 32 34
2 2 2 3 4 6 8 10 13 15 16 18 20 22 23 23 25 26 28 29 31 32 34 35 36 37 38 38 39 40 42 44 47 49 49 49 48 47 46 47 47 45 45 44 40 37 36 34 35 38 35 30 31 33 28 18 11 9 9 9 9 8 9 10 11 13 17 20 24 28 31 31 31 33
1 2 1 2 3 6 8 10 12 14 15 18 19 20 22 22 23 25 27 29 30 32 33 35 36 37 39 39 39 39 41 43 46 49 51 49 48 48 46 44 46 47 46 44 40 36 35 33 33 35 35 33 32 30 25 19 12 9 9 9 10 9 8 9 10 10 12 15 20 24 27 27 28 31
1 1 1 2 4 5 8 10 12 14 15 17 19 20 21 22 22 24 25 27 29 31 32 34 36 37 38 39 39 38 39 42 45 49 51 51 49 49 49 47 45 46 47 44 39 33 31 29 29 30 32 32 32 29 25 21 17 13 13 12 10 10 11 10 10 11 12 12 14 18 21 22 24 28
1 0 1 2 4 6 8 10 11 13 15 17 19 20 21 22 22 23 25 26 28 30 32 34 35 36 37 38 38 38 38 41 46 48 51 52 51 50 51 51 50 48 47 44 37 31 28 26 26 31 34 32 31 29 26 22 18 15 14 12 7 8 14 12 10 12 14 13 12 15 17 20 23 26
1 1 2 3 5 6 8 9 11 13 15 17 19 20 21 22 22 23 25 26 28 29 31 33 34 35 36 36 37 37 38 41 46 48 50 53 54 52 52 53 52 50 48 46 40 32 28 27 29 34 39 37 33 32 30 24 20 17 14 11 5 6 13 15 14 14 14 13 12 14 17 20 23 26
2 2 3 4 6 7 8 9 11 13 14 16 18 19 20 21 22 23 24 26 27 29 30 32 34 35 35 36 37 38 39 41 44 46 50 54 55 54 54 54 53 50 50 50 47 40 33 31 32 37 43 43 41 40 37 32 25 21 17 13 6 1 8 11 13 13 12 13 13 14 16 19 21 24
4 4 4 5 7 7 8 9 10 12 14 15 17 18 19 20 21 22 24 26 28 30 31 32 33 34 35 36 37 38 39 40 41 44 48 51 54 56 55 54 51 48 50 52 51 48 43 38 36 39 44 48 50 47 44 40 35 29 23 18 13 8 1 5 6 9 11 12 13 14 16 17 20 23
5 5 5 6 7 8 8 9 10 12 13 15 15 15 16 18 20 22 25 27 29 30 31 32 33 33 34 36 37 39 40 39 40 43 45 48 53 54 54 54 49 43 46 52 53 51 49 44 39 38 41 47 51 50 47 45 42 37 31 24 18 14 7 5 6 6 8 10 10 12 14 17 20 23
6 6 6 7 8 8 8 9 10 11 13 13 13 13 14 17 20 22 25 28 29 31 32 33 34 34 35 36 37 38 39 39 39 41 43 46 51 52 52 55 50 40 41 50 53 53 53 50 44 40 38 42 49 52 51 49 45 42 40 34 26 21 16 10 7 6 7 8 9 11 13 16 19 22
6 6 6 7 8 8 8 9 10 11 13 13 11 11 13 15 18 21 24 27 29 31 33 34 35 35 35 36 37 37 38 39 39 40 41 43 48 50 50 53 52 44 42 46 47 49 54 54 50 45 39 38 43 49 52 53 49 43 41 39 35 31 26 18 12 9 10 11 10 11 12 15 18 20
6 6 6 7 7 7 7 8 10 11 12 12 11 10 11 14 17 20 23 25 27 30 33 34 35 36 36 36 36 37 38 39 39 40 41 41 44 47 47 50 52 48 44 44 43 43 49 53 52 50 45 41 43 45 49 54 55 49 43 40 38 35 32 29 22 14 13 13 12 13 14 14 15 16
5 5 5 5 6 7 7 8 10 11 12 12 11 10 11 13 16 18 21 23 25 28 30 32 35 37 37 36 36 36 38 39 39 40 41 41 42 44 45 48 51 48 45 45 43 39 43 49 49 46 43 42 42 45 46 48 52 54 51 45 40 36 33 33 31 25 19 16 14 14 15 14 13 12
4 4 4 5 6 7 8 10 11 11 12 11 11 10 10 12 15 17 19 22 23 25 28 30 32 35 37 38 37 36 37 38 38 39 40 39 40 42 43 46 49 48 46 47 44 40 41 46 46 43 41 37 36 38 42 43 46 53 56 51 45 39 34 31 32 31 25 21 18 15 14 13 14 13
3 3 4 5 7 8 10 12 12 12 12 11 10 9 10 12 14 16 18 21 23 24 26 27 29 32 34 37 38 37 37 37 38 39 39 38 38 40 41 42 45 47 46 47 47 45 42 42 42 42 40 37 33 34 38 40 42 48 54 54 49 43 37 33 33 32 27 24 21 16 11 10 10 11
4 4 5 6 8 9 11 13 13 12 12 11 10 9 10 12 14 16 18 20 22 23 24 26 27 29 31 34 36 37 37 37 37 38 38 38 37 37 39 40 42 44 45 46 48 47 43 42 42 40 37 36 35 34 34 34 34 37 45 51 52 49 45 41 38 33 28 24 21 18 14 10 8 6
5 6 7 8 9 10 12 13 14 13 12 11 10 10 11 12 14 16 18 20 21 22 24 25 26 27 29 30 32 34 35 36 37 37 37 38 37 36 36 38 39 40 42 44 46 46 44 42 42 41 37 35 35 36 37 37 36 38 43 47 50 51 49 47 43 38 33 26 21 19 18 14 10 7
8 8 9 10 11 12 13 14 14 13 12 11 11 10 11 12 14 16 18 19 20 21 23 24 25 26 27 28 30 32 33 34 35 36 36 37 37 36 35 36 36 37 39 40 42 44 43 41 40 40 40 37 36 38 41 41 41 43 44 44 45 46 47 47 46 44 40 33 25 22 21 19 15 12
10 10 10 11 12 13 14 15 15 13 12 12 11 11 11 12 14 16 17 18 20 21 22 23 24 25 26 27 28 29 30 31 33 34 35 36 37 37 36 35 34 35 36 36 37 39 40 41 40 40 41 40 40 40 38 34 35 40 42 41 42 43 43 44 45 46 45 41 35 30 26 22 19 19
10 11 11 12 13 14 15 16 15 13 13 12 12 12 12 13 14 15 16 18 19 20 21 22 23 24 25 26 26 27 28 29 30 31 33 35 36 37 36 34 33 33 33 34 35 36 38 41 42 41 40 40 40 39 34 30 32 38 40 40 41 42 41 42 42 43 44 45 43 39 35 30 26 25
11 11 12 13 14 15 16 15 14 14 13 13 12 12 13 14 14 15 15 16 18 19 19 20 21 21 22 24 24 25 25 27 28 28 30 32 34 35 36 35 34 33 32 32 33 34 36 39 41 42 41 39 37 37 36 35 35 36 37 38 39 39 39 40 40 40 41 42 41 39 37 35 31 27
12 12 13 14 15 16 15 14 13 13 13 13 13 13 14 14 14 14 15 16 17 18 18 19 19 19 20 21 23 23 24 25 26 26 27 29 30 32 34 35 35 34 32 32 32 33 34 35 37 39 40 39 37 35 34 34 35 35 35 36 36 35 35 36 38 38 38 37 35 34 33 32 30 27
Wind_Direction
46 42 40 37 36 36 33 31 29 27 24 22 21 19 19 20 14 3 359 360 1 2 3 1 358 357 355 351 348 346 345 345 342 341 340 338 336 335 334 333 332 331 329 326 323 320 318 314 311 307 303 300 298 295 291 288 286 284 280 277 276 273 269 266 260 251 246 245 248 244 227 215 215 216
46 42 40 38 38 38 35 32 31 28 25 23 22 20 18 18 16 5 350 350 356 357 359 0 356 353 353 350 346 346 346 346 345 342 340 339 338 336 336 337 336 334 331 329 326 323 321 317 313 309 304 300 297 295 292 287 284 283 280 274 272 273 270 266 261 251 245 241 242 246 236 215 211 216
48 42 40 39 39 39 37 35 32 28 26 25 23 21 17 13 10 7 353 342 351 357 354 356 356 352 351 351 349 348 348 347 345 343 341 340 339 339 339 339 337 335 333 330 328 324 321 317 314 310 306 301 297 294 292 288 283 281 280 274 268 270 269 265 261 252 244 239 238 243 238 219 209 212
50 43 41 41 41 41 39 36 33 29 26 25 23 21 18 13 7 5 359 342 345 355 354 352 354 352 351 353 352 348 346 345 344 343 342 341 342 341 340 338 337 335 332 330 327 324 320 316 312 309 306 302 298 294 291 287 282 278 278 275 268 264 265 263 259 253 245 238 235 239 238 225 212 208
51 46 45 43 43 42 40 37 33 29 27 24 23 21 17 16 9 4 1 349 343 349 353 352 353 354 353 353 351 348 345 344 343 343 343 343 342 341 340 338 337 335 331 328 325 323 319 314 312 310 306 302 298 294 289 285 281 276 274 275 270 260 258 260 257 252 247 239 233 235 237 232 219 209
53 50 48 45 44 42 39 37 34 29 27 24 22 20 17 16 13 6 360 352 343 343 349 353 353 353 352 351 351 349 346 345 344 344 344 343 342 341 340 338 335 332 328 324 323 322 319 315 315 314 309 305 300 296 292 286 282 277 272 272 271 262 253 253 254 251 248 241 233 232 236 236 226 216
58 54 50 46 43 42 39 36 34 30 26 23 21 19 16 13 10 6 359 353 346 342 347 353 352 351 351 351 351 349 347 346 345 344 343 342 341 339 339 336 330 325 322 320 320 320 318 314 314 314 311 307 305 302 297 291 285 280 273 270 270 264 252 247 248 248 247 243 235 230 233 237 233 224
59 52 49 46 44 42 39 35 33 30 26 23 20 17 14 10 5 2 359 354 350 346 347 351 352 351 351 351 351 350 348 346 344 343 342 341 338 336 335 332 323 317 317 316 315 315 313 311 310 310 308 306 306 304 300 296 290 282 275 269 268 265 254 244 243 244 246 245 238 231 231 234 237 232
56 49 46 45 44 41 38 34 30 28 26 22 19 15 10 6 2 360 358 355 352 350 349 350 351 351 351 351 352 352 349 346 344 343 340 337 335 332 328 323 318 317 317 313 312 312 310 309 307 305 304 301 301 301 299 297 292 284 275 268 265 264 257 245 239 240 243 244 240 234 230 231 235 236
51 47 44 42 41 38 34 31 26 24 24 21 17 13 8 4 0 359 357 355 353 352 351 351 350 350 351 351 352 352 349 345 343 340 336 334 333 328 324 320 318 318 317 313 313 312 311 309 306 302 301 299 298 298 298 296 292 285 276 266 261 260 258 248 238 236 240 243 242 236 231 229 231 234
50 45 43 39 38 34 30 27 22 20 21 20 16 10 6 3 359 358 356 355 354 353 352 351 350 349 351 351 350 350 348 344 340 338 335 333 330 326 324 321 319 318 317 315 315 313 311 310 307 303 301 299 298 297 297 296 292 285 276 266 257 255 255 251 241 235 236 241 242 238 232 229 228 231
49 43 41 37 34 31 27 22 18 17 17 16 14 10 6 2 359 357 356 355 354 353 351 351 350 349 350 350 348 347 348 344 341 341 338 332 328 327 324 320 319 320 319 318 317 315 312 310 309 305 302 299 297 294 293 290 287 283 276 268 258 252 252 251 243 236 234 238 241 240 234 229 228 228
48 40 37 35 30 29 25 19 16 16 15 12 10 8 5 1 358 355 355 355 354 352 352 350 350 349 349 348 347 347 347 344 341 342 340 332 327 325 322 321 322 322 322 322 319 316 315 314 311 307 304 301 297 294 290 285 283 281 277 272 264 256 252 250 244 235 232 235 239 240 236 230 227 227
44 38 33 30 27 24 21 16 15 16 15 12 10 9 6 1 357 353 353 355 354 352 352 350 350 349 347 347 347 347 346 344 342 343 342 337 332 327 324 325 329 330 328 325 320 317 317 318 314 309 306 303 298 295 289 283 278 274 275 275 270 262 253 247 243 235 229 231 236 238 237 232 227 226
39 35 29 25 22 19 15 12 13 14 13 11 10 10 8 3 357 353 352 353 354 353 351 350 350 349 345 345 348 347 345 344 345 345 342 338 334 331 328 328 329 334 333 326 321 319 320 321 316 310 308 305 300 296 289 282 277 274 274 275 270 263 253 244 241 236 227 226 233 237 237 233 227 225
35 31 25 23 19 15 10 9 12 12 9 9 9 7 7 6 1 356 354 353 353 353 351 350 350 348 344 344 347 348 346 345 346 345 343 339 333 329 329 327 326 331 333 327 323 322 322 322 316 308 307 307 301 296 288 282 282 282 280 276 268 261 253 245 240 237 229 223 228 235 236 233 229 224
31 26 21 24 19 9 7 9 11 9 6 7 7 5 5 6 3 359 357 355 355 354 352 350 349 348 346 344 345 348 347 347 348 345 344 342 335 327 327 327 326 329 332 329 325 322 322 321 314 308 307 307 303 298 292 287 288 290 287 279 271 260 252 246 241 237 231 224 224 232 235 233 229 224
19 19 18 24 17 6 7 10 8 6 5 5 5 4 5 5 3 360 359 358 357 356 354 351 348 348 347 344 344 346 348 350 349 346 346 345 335 324 326 329 328 329 332 331 326 322 324 323 315 310 310 309 305 300 296 296 297 296 290 281 272 260 250 246 241 237 233 225 223 229 234 233 230 225
2 13 17 20 14 7 7 8 5 5 5 4 3 3 5 4 3 1 360 359 358 356 354 352 349 348 348 346 346 346 349 352 351 349 349 346 333 323 329 334 333 332 334 335 331 327 327 324 315 313 316 315 310 303 299 300 301 297 290 280 270 258 249 245 241 236 233 227 223 226 231 232 229 224
355 15 18 18 14 9 6 3 3 4 4 3 2 2 4 4 4 3 1 359 358 356 354 353 351 349 348 348 348 349 352 355 354 353 353 349 338 331 335 339 338 338 340 343 340 332 326 323 316 316 322 322 315 307 302 298 298 297 291 284 274 259 248 244 241 237 233 228 224 225 229 231 228 223
14 16 19 20 15 10 6 3 3 4 3 3 3 2 2 2 2 2 1 359 358 356 355 355 354 352 352 352 354 355 357 359 359 358 356 352 345 339 340 340 339 342 345 346 343 333 325 324 322 320 327 327 317 308 305 300 296 294 291 288 280 264 251 245 242 239 234 229 225 224 228 230 227 223
44 16 17 21 17 12 9 6 4 3 3 4 3 1 1 1 0 359 357 357 356 355 355 356 357 358 357 358 360 1 2 3 4 2 359 355 349 342 342 342 340 343 347 349 345 335 327 330 331 330 331 329 322 314 310 303 297 293 290 289 282 271 260 250 245 242 237 231 226 224 227 228 225 221
52 24 20 23 18 13 12 9 5 3 3 4 3 1 360 359 358 356 354 354 353 352 353 356 359 2 2 2 3 4 5 6 6 5 3 1 355 347 346 347 345 343 346 351 350 339 332 336 340 341 338 330 325 326 321 307 299 296 292 289 282 278 273 260 251 245 240 233 227 224 225 226 223 220
70 40 28 24 18 14 12 8 5 4 4 3 3 1 359 356 354 353 353 353 352 351 353 356 0 3 4 4 5 5 6 7 6 5 6 6 4 356 351 351 350 345 345 352 355 347 341 344 344 344 342 330 323 329 332 319 304 299 297 293 287 283 283 277 265 252 243 234 226 225 226 225 221 219
92 71 49 28 15 12 8 4 5 5 5 3 2 0 358 354 352 351 352 352 353 353 354 357 1 3 4 5 5 5 6 6 6 7 7 8 9 6 358 354 354 351 351 357 1 355 351 350 347 344 343 336 327 329 333 331 319 307 303 298 293 286 275 272 269 255 243 234 226 224 226 225 221 219
114 108 87 31 8 4 3 2 4 6 6 4 1 358 356 355 353 352 352 353 354 355 356 358 0 3 4 4 5 6 6 6 6 8 8 8 11 12 8 2 358 355 356 1 5 3 358 354 348 344 343 342 338 334 332 333 329 317 307 301 297 286 261 248 245 239 235 232 228 226 225 225 222 219
162 135 60 7 357 357 359 2 6 8 8 6 2 358 356 355 355 355 355 355 356 357 358 358 360 2 3 3 4 6 6 6 8 10 9 8 10 14 14 11 6 2 1 3 7 7 3 356 351 352 352 350 347 344 338 336 335 326 315 310 297 266 247 242 242 238 229 223 225 227 224 222 220 218
224 263 341 351 350 353 358 2 8 11 10 6 2 358 355 355 357 358 357 358 358 359 359 359 359 2 2 2 4 5 6 7 9 10 9 9 11 14 16 15 13 9 8 9 10 11 9 4 2 8 11 5 359 357 353 350 353 347 329 321 308 250 240 243 251 246 234 222 219 221 218 214 212 213
263 306 349 360 356 354 355 360 6 10 9 6 2 358 355 356 359 0 360 360 360 360 360 359 359 1 1 1 2 5 7 9 10 9 9 10 11 14 17 18 17 17 16 16 16 17 17 15 13 17 20 17 13 12 11 9 16 17 359 344 332 241 235 246 259 255 238 226 220 215 212 209 208 209
285 313 348 1 359 355 353 356 2 6 6 4 2 360 359 360 2 3 2 1 1 0 0 360 359 360 1 0 1 5 9 11 10 9 10 10 10 13 16 16 18 21 22 21 21 22 24 24 21 22 23 22 21 24 25 24 30 37 31 20 17 243 228 244 259 256 237 225 220 212 207 206 205 205
289 309 337 350 351 353 355 355 357 359 1 3 3 3 4 6 8 9 8 6 5 3 1 360 359 360 1 1 1 4 9 10 9 10 11 10 11 14 15 13 14 18 20 20 21 22 25 28 27 27 28 27 25 28 33 35 36 41 45 47 50 48 74 207 224 235 225 215 214 209 203 201 199 198
290 307 325 333 337 346 354 354 352 352 355 1 6 8 12 15 16 16 15 13 11 6 3 1 0 0 2 3 2 3 7 9 9 10 11 11 12 15 15 13 12 11 12 14 17 19 22 27 30 28 30 31 28 27 33 39 39 40 43 51 60 59 67 128 160 195 205 201 202 199 193 194 194 193
288 300 307 312 319 330 343 351 351 348 351 358 8 15 17 19 20 19 18 16 14 11 7 5 3 2 2 4 3 2 4 8 10 11 11 11 13 15 15 14 13 9 6 10 15 17 19 25 31 30 29 32 31 29 31 35 38 39 40 44 53 61 67 89 119 141 158 168 178 180 182 190 194 194
284 291 292 297 305 312 329 343 346 345 346 352 4 15 19 18 16 15 15 15 13 13 12 9 6 4 3 4 4 3 3 6 10 12 12 11 13 15 15 15 15 12 8 8 12 15 17 21 29 31 28 28 32 32 30 31 35 39 41 44 49 55 61 72 91 122 142 149 157 164 175 189 194 196
284 288 289 295 302 304 316 331 336 338 342 344 351 3 11 12 10 8 9 10 9 10 13 12 10 8 6 4 4 3 3 5 8 11 13 12 12 14 16 16 17 15 11 9 11 14 16 19 24 27 26 25 29 31 30 30 32 35 40 44 46 49 56 64 72 96 131 143 154 167 175 182 187 192
279 284 289 295 302 302 309 320 325 330 335 336 338 345 353 0 3 2 2 4 4 6 9 10 10 10 8 7 6 5 4 5 7 10 13 13 12 12 14 17 19 17 13 13 13 13 16 19 22 22 20 20 22 25 26 28 29 31 35 40 43 46 52 58 63 75 97 115 132 148 154 158 166 174
261 274 288 299 307 306 308 313 316 320 325 326 326 331 337 348 355 356 356 358 0 2 4 6 7 8 8 8 8 7 5 5 6 9 12 13 12 11 12 15 19 19 16 16 16 15 16 20 23 22 19 17 16 17 20 24 27 30 33 36 39 42 46 51 56 62 72 84 98 111 123 138 155 167
242 262 285 301 309 308 307 308 309 311 316 316 314 319 329 338 347 351 351 353 355 356 358 1 3 4 5 6 8 8 7 6 6 9 11 12 12 11 11 13 18 20 18 18 19 19 17 19 23 24 22 19 16 14 16 20 24 27 31 34 38 41 43 45 48 51 56 65 73 77 88 113 137 156
243 266 286 300 308 307 305 306 305 304 306 307 304 309 322 332 340 344 345 347 349 351 352 355 357 360 2 3 5 7 8 8 7 7 10 12 13 12 10 12 15 18 19 19 20 20 19 20 23 25 25 25 25 24 24 23 23 26 30 33 36 39 41 42 44 46 48 54 61 63 67 78 94 117
256 271 286 295 301 303 302 303 302 297 296 297 296 301 314 325 333 337 340 342 345 346 348 350 351 354 357 358 0 4 8 10 10 8 7 10 14 14 12 12 14 16 18 19 20 21 21 22 23 25 27 29 31 33 35 35 32 32 35 35 35 36 38 41 44 46 47 49 56 60 60 61 63 68
265 276 286 289 292 294 295 297 297 291 286 286 288 294 307 318 327 333 336 339 341 343 345 347 347 349 352 353 355 359 4 8 11 11 9 9 11 14 15 13 12 14 18 19 20 21 21 22 23 25 26 27 29 32 35 33 31 32 35 37 36 36 36 38 41 44 46 49 55 60 59 58 59 61
267 277 282 282 285 286 287 290 290 283 277 278 281 289 301 312 321 328 333 337 341 343 344 346 346 346 347 349 351 354 358 3 8 11 12 10 9 12 15 15 11 12 16 18 19 20 21 23 24 26 26 26 29 31 32 29 27 29 33 36 38 39 38 37 39 41 43 45 48 51 51 53 55 55
266 274 277 279 282 282 282 286 284 275 272 274 276 284 297 307 316 324 330 336 342 345 345 345 345 345 345 346 347 349 353 357 2 7 11 12 11 10 13 14 13 12 13 14 17 19 21 23 26 27 27 28 30 32 33 30 30 31 32 35 38 40 39 38 39 40 42 43 43 44 45 46 48 45
264 273 278 280 280 279 281 284 280 272 269 271 275 282 294 303 310 318 325 331 337 342 343 342 342 343 344 344 346 348 349 351 355 360 6 10 12 11 10 12 14 15 13 11 12 16 19 22 24 27 29 30 31 33 34 33 32 33 33 35 37 38 38 39 40 41 42 43 42 41 42 43 44 42
269 275 278 278 277 277 279 281 278 271 269 271 275 282 289 297 304 311 318 326 331 335 337 336 335 337 341 342 344 347 349 349 351 354 358 4 8 10 10 10 12 14 14 13 12 13 16 19 21 25 28 30 31 34 35 32 30 30 33 36 38 38 38 40 41 43 44 45 43 40 40 40 41 40